Tracking 20945 objects as of 9-Jul-2020
HD Live streaming from Space Station
objects crossing your sky now

COSMOS 2251 DEB

Track COSMOS 2251 DEB now!
10-day predictions


NORAD ID: 35701
Int'l Code: 1993-036APW
Perigee: 770.0 km
Apogee: 1,232.0 km
Inclination: 74.0 °
Period: 105.0 minutes
Semi major axis: 7371 km
RCS: 0.0086 m2 (small)
Launch date: June 16, 1993
Source: Commonwealth of Independent States (former USSR) (CIS)
Launch site: PLESETSK MISSILE AND SPACE COMPLEX (PKMTR)

Note: This is SATELLITE DEBRIS
aabbcc
Your satellite tracking list
Your tracking list is empty




NASA's NSSDC Master Catalog

Two Line Element Set (TLE):
1 35701U 93036APW 20189.18857358  .00000243  00000-0  20904-3 0  9999
2 35701  74.0123   5.2790 0313385 277.8252  78.7401 13.71598421564704
Source of the keplerian elements: AFSPC